Location: Eschertshofen
(49.3064°N, 11.5756°E)
Time: 05:16:47
(UTC+00:00)

Ariane Rocket - Pass Details

Date: 18 September 2020
Orbit: 761 x 769 km, 98.7° (Epoch: 20 October)

Event Time Altitude Azimuth Distance (km) Brightness Sun altitude
Exits shadow 18:09:46 - 142° (SE) 2,872 5.5 -8.9°
Reaches altitude 10° 18:11:15 10° 138° (SE) 2,296 5.0 -9.2°
Maximum altitude 18:16:03 45° 67° (ENE) 1,039 3.4 -9.9°
Drops below altitude 10° 18:20:53 10° 356° (N) 2,316 5.7 -10.7°
Sets 18:23:16 0° 350° (N) 3,248 6.6 -11.1°
